LRIA Weather Reports


Display with metric or nautical units.
time (UTC)temp
F
wind
direction
speed
MPH
gust
MPH
rain 1hr
in
rain 24hr
in
rain mn
in
humidity
%
barometer
mb
20260503211824 54 2.0 0.0 0.00 0.00 0.00 41 1017.0
20260503210323 54 2.0 0.0 0.00 0.00 0.00 41 1017.0
20260503204830 54 220 5.0 0.0 0.00 0.00 0.00 41 1018.0
20260503203440 54 220 5.0 0.0 0.00 0.00 0.00 41 1018.0
20260503201823 54 230 5.0 0.0 0.00 0.00 0.00 41 1018.0
20260503200332 54 230 5.0 0.0 0.00 0.00 0.00 41 1018.0
20260503194848 54 220 5.0 0.0 0.00 0.00 0.00 44 1018.0
20260503193441 54 220 5.0 0.0 0.00 0.00 0.00 44 1018.0
20260503191823 54 210 5.0 0.0 0.00 0.00 0.00 41 1018.0
20260503190323 54 210 5.0 0.0 0.00 0.00 0.00 41 1018.0
20260503184940 57 220 3.0 0.0 0.00 0.00 0.00 36 1018.0
20260503183323 57 220 3.0 0.0 0.00 0.00 0.00 36 1018.0
20260503181823 57 260 3.0 0.0 0.00 0.00 0.00 33 1018.0
20260503180323 57 260 3.0 0.0 0.00 0.00 0.00 33 1018.0
20260503174843 57 270 5.0 0.0 0.00 0.00 0.00 36 1018.0
20260503173348 57 270 5.0 0.0 0.00 0.00 0.00 36 1018.0
20260503171823 59 2.0 0.0 0.00 0.00 0.00 34 1018.0
20260503170324 59 2.0 0.0 0.00 0.00 0.00 34 1018.0
20260503150323 61 330 5.0 0.0 0.00 0.00 0.00 34 1019.0
20260503130323 61 3.0 0.0 0.00 0.00 0.00 27 1020.0
20260503110344 61 3.0 0.0 0.00 0.00 0.00 27 1022.0
20260503090344 59 70 6.0 0.0 0.00 0.00 0.00 31 1023.0
20260503080334 57 2.0 0.0 0.00 0.00 0.00 27 1023.0
20260503071822 55 2.0 0.0 0.00 0.00 0.00 33 1023.0
20260503070324 55 2.0 0.0 0.00 0.00 0.00 33 1023.0
20260503060323 50 2.0 0.0 0.00 0.00 0.00 47 1023.0
20260503054823 48 2.0 0.0 0.00 0.00 0.00 50 1023.0
20260503053323 48 2.0 0.0 0.00 0.00 0.00 50 1023.0
20260503051823 43 220 2.0 0.0 0.00 0.00 0.00 61 1023.0
20260503050323 43 220 2.0 0.0 0.00 0.00 0.00 61 1023.0
20260503044823 41 2.0 0.0 0.00 0.00 0.00 66 1023.0
20260503043324 41 2.0 0.0 0.00 0.00 0.00 66 1023.0
20260503041823 39 0 0.0 0.0 0.00 0.00 0.00 70 1023.0
20260503040346 39 0 0.0 0.0 0.00 0.00 0.00 70 1023.0
20260503034825 36 230 2.0 0.0 0.00 0.00 0.00 81 1023.0
20260503033323 36 230 2.0 0.0 0.00 0.00 0.00 81 1023.0
20260503031823 36 0 0.0 0.0 0.00 0.00 0.00 75 1023.0
20260503030323 36 0 0.0 0.0 0.00 0.00 0.00 75 1023.0
20260503024838 34 260 1.0 0.0 0.00 0.00 0.00 75 1023.0
20260503023323 34 260 1.0 0.0 0.00 0.00 0.00 75 1023.0
20260503021823 37 290 3.0 0.0 0.00 0.00 0.00 65 1023.0
20260503020323 37 290 3.0 0.0 0.00 0.00 0.00 65 1023.0
20260503014824 39 280 2.0 0.0 0.00 0.00 0.00 65 1023.0
20260503013323 39 280 2.0 0.0 0.00 0.00 0.00 65 1023.0
20260503011823 39 0 0.0 0.0 0.00 0.00 0.00 65 1023.0
20260503010323 39 0 0.0 0.0 0.00 0.00 0.00 65 1023.0
20260503004823 39 290 1.0 0.0 0.00 0.00 0.00 70 1023.0
20260503003323 39 290 1.0 0.0 0.00 0.00 0.00 70 1023.0
20260503001823 37 250 1.0 0.0 0.00 0.00 0.00 70 1023.0
20260503000323 37 250 1.0 0.0 0.00 0.00 0.00 70 1023.0
20260502234823 43 280 2.0 0.0 0.00 0.00 0.00 61 1023.0
20260502233323 43 280 2.0 0.0 0.00 0.00 0.00 61 1023.0
20260502231823 45 0 0.0 0.0 0.00 0.00 0.00 53 1023.0
20260502230323 45 0 0.0 0.0 0.00 0.00 0.00 53 1023.0
20260502224823 45 0 0.0 0.0 0.00 0.00 0.00 49 1023.0
20260502223323 45 0 0.0 0.0 0.00 0.00 0.00 49 1023.0
20260502221823 45 1.0 0.0 0.00 0.00 0.00 49 1023.0
20260502220323 45 1.0 0.0 0.00 0.00 0.00 49 1023.0
20260502214823 45 0 0.0 0.0 0.00 0.00 0.00 49 1023.0
20260502213323 45 0 0.0 0.0 0.00 0.00 0.00 49 1023.0